Location: C�an Torras
(41.5052°N, 1.9280°E)
Time: 07:39:00
(UTC+00:00)

Cosmos 1315 Rocket - Visible Passes

Search period start: 09 May 2021 00:00
Search period end: 19 May 2021 00:00
Orbit: 528 x 569 km, 81.2° (Epoch: 08 May)

Date Brightness Start Highest point End Pass type
(mag) Time Alt. Az. Time Alt. Az. Time Alt. Az.
09 May 5.2 01:09:29 10° NNE 01:12:07 17° ENE 01:13:10 15° E visible
09 May 3.5 02:45:09 10° NNW 02:48:46 34° W 02:48:49 34° W visible
10 May 5.1 01:04:30 10° NNE 01:07:19 18° ENE 01:08:01 18° E visible
10 May 3.7 02:40:23 10° NNW 02:43:40 31° W 02:43:40 31° W visible
11 May 5.0 00:59:31 10° NNE 01:02:31 20° ENE 01:02:54 20° E visible
11 May 4.0 02:35:38 10° NNW 02:38:34 27° WNW 02:38:34 27° WNW visible
12 May 4.9 00:54:34 10° NNE 00:57:43 22° ENE 00:57:49 22° ENE visible
12 May 4.2 02:30:53 10° NW 02:33:29 24° WNW 02:33:29 24° WNW visible
13 May 4.8 00:49:37 10° NNE 00:52:47 24° ENE 00:52:47 24° ENE visible
13 May 4.4 02:26:08 10° NW 02:28:27 22° WNW 02:28:27 22° WNW visible
14 May 4.7 00:44:41 10° NNE 00:47:46 26° ENE 00:47:46 26° ENE visible
14 May 4.6 02:21:25 10° NW 02:23:26 19° WNW 02:23:26 19° WNW visible
15 May 4.6 00:39:46 10° NNE 00:42:46 28° ENE 00:42:46 28° ENE visible
15 May 4.7 02:16:42 10° NW 02:18:26 17° WNW 02:18:26 17° WNW visible
16 May 4.5 00:34:51 10° N 00:37:48 30° NE 00:37:48 30° NE visible
16 May 4.9 02:12:01 10° NW 02:13:28 16° WNW 02:13:28 16° WNW visible
17 May 4.4 00:29:57 10° N 00:32:50 31° NE 00:32:50 31° NE visible
17 May 5.0 02:07:20 10° NW 02:08:31 14° WNW 02:08:31 14° WNW visible
18 May 4.3 00:25:03 10° N 00:27:55 33° NE 00:27:55 33° NE visible
18 May 5.2 02:02:41 10° NW 02:03:35 13° WNW 02:03:35 13° WNW visible
